CJT17T RJAH-YMML

Flight info

Callsign CJT17T
Flight time N/A
Altitude 33000
Route CVT INUBO Y820 DAGDA A337 TEGOD/N0471F340 G205 UNZ/N0473F330 B586 KAPOK/N0470F350 B586 PY R346 MABRO/N0462F370 R346 TL Q30 ANRUB/N0458F380 Q30 MATAR/N0455F370 Y33 MIMIB/N0453F390 Y33 DUBED/N0447F380 Q35 DORSU H119 ARBEY
Aircraft B763/H-SDE3FGHIM3RWXY/LB1

Departure

Time 2026-04-22 11:45
Airport Ibaraki Airport (RJAH)

Arrival

Time N/A
Airport Melbourne Airport (YMML)
Time Latitude Longitude Altitude Speed Heading
2026-04-22 11:13 36.17838 140.40891 115 ft 0 kts 333°
2026-04-22 11:36 36.17839 140.40889 115 ft 0 kts 334°
2026-04-22 11:36 36.17847 140.40887 115 ft 1 kts
2026-04-22 11:36 36.17855 140.40900 115 ft 2 kts 76°
2026-04-22 11:37 36.17836 140.40920 115 ft 4 kts 160°
2026-04-22 11:37 36.17813 140.40929 115 ft 2 kts 161°
2026-04-22 11:37 36.17793 140.40936 115 ft 3 kts 161°
2026-04-22 11:37 36.17775 140.40945 115 ft 2 kts 148°
2026-04-22 11:38 36.17760 140.40964 115 ft 3 kts 127°
2026-04-22 11:38 36.17741 140.41007 115 ft 7 kts 113°
2026-04-22 11:38 36.17763 140.41138 115 ft 9 kts 36°
2026-04-22 11:39 36.17830 140.41179 115 ft 12 kts 22°
2026-04-22 11:39 36.17918 140.41220 115 ft 15 kts 21°
2026-04-22 11:39 36.18025 140.41270 115 ft 17 kts 18°
2026-04-22 11:39 36.18152 140.41325 115 ft 20 kts 19°
2026-04-22 11:40 36.18297 140.41391 115 ft 23 kts 21°
2026-04-22 11:40 36.18454 140.41469 115 ft 24 kts 21°
2026-04-22 11:40 36.18610 140.41544 115 ft 20 kts 19°
2026-04-22 11:40 36.18754 140.41606 115 ft 23 kts 19°
2026-04-22 11:41 36.18914 140.41675 115 ft 25 kts 19°
2026-04-22 11:41 36.19079 140.41751 115 ft 23 kts 21°
2026-04-22 11:41 36.19210 140.41817 115 ft 15 kts 28°
2026-04-22 11:41 36.19264 140.41849 115 ft 8 kts 358°
2026-04-22 11:42 36.19263 140.41815 115 ft 5 kts 210°
2026-04-22 11:42 36.19246 140.41809 115 ft 0 kts 198°
2026-04-22 11:44 36.19245 140.41808 115 ft 1 kts 198°
2026-04-22 11:44 36.19108 140.41748 115 ft 47 kts 200°
2026-04-22 11:44 36.18600 140.41519 115 ft 106 kts 199°
2026-04-22 11:44 36.17726 140.41136 116 ft 157 kts 200°
2026-04-22 11:45 36.16586 140.40622 324 ft 183 kts 200°
2026-04-22 11:45 36.15469 140.40114 1056 ft 159 kts 192°
2026-04-22 11:45 36.14402 140.40248 1346 ft 165 kts 149°
2026-04-22 11:45 36.13670 140.41419 1479 ft 186 kts 105°
2026-04-22 11:46 36.13807 140.43050 1749 ft 206 kts 63°
2026-04-22 11:46 36.14828 140.44338 2086 ft 221 kts 25°
2026-04-22 11:46 36.16385 140.44688 2341 ft 239 kts 349°
2026-04-22 11:46 36.17955 140.43901 2688 ft 253 kts 324°
2026-04-22 11:47 36.19585 140.42953 2945 ft 267 kts 348°
2026-04-22 11:47 36.21440 140.43050 3220 ft 269 kts 19°
2026-04-22 11:47 36.23008 140.44232 3490 ft 265 kts 50°
2026-04-22 11:47 36.23903 140.46185 3801 ft 265 kts 73°
2026-04-22 11:48 36.24588 140.48322 4051 ft 267 kts 62°
2026-04-22 11:48 36.25560 140.50272 4286 ft 268 kts 55°
2026-04-22 11:48 36.26667 140.52124 4592 ft 269 kts 52°
2026-04-22 11:48 36.27858 140.53932 4955 ft 269 kts 50°
2026-04-22 11:49 36.29081 140.55682 5317 ft 273 kts 48°
2026-04-22 11:49 36.30347 140.57433 5752 ft 272 kts 47°
2026-04-22 11:49 36.31627 140.59170 6251 ft 273 kts 47°
2026-04-22 11:49 36.32925 140.60915 6768 ft 278 kts 46°
2026-04-22 11:50 36.34236 140.62665 7274 ft 283 kts 46°
2026-04-22 11:50 36.35584 140.64462 7781 ft 285 kts 47°
2026-04-22 11:50 36.36957 140.66289 8290 ft 291 kts 47°
2026-04-22 11:50 36.38321 140.68105 8743 ft 293 kts 47°
2026-04-22 11:51 36.39720 140.69965 9193 ft 295 kts 47°
2026-04-22 11:51 36.41146 140.71863 9470 ft 309 kts 47°
2026-04-22 11:51 36.42633 140.73842 10016 ft 319 kts 47°
2026-04-22 11:51 36.44170 140.75886 10001 ft 330 kts 47°
2026-04-22 11:52 36.45709 140.77939 9993 ft 319 kts 46°
2026-04-22 11:52 36.47203 140.79930 9998 ft 311 kts 46°
2026-04-22 11:52 36.48654 140.81865 10003 ft 308 kts 47°
2026-04-22 11:52 36.50128 140.83833 10011 ft 313 kts 46°
2026-04-22 11:53 36.51633 140.85841 10016 ft 316 kts 47°
2026-04-22 11:53 36.53121 140.87830 10012 ft 316 kts 46°
2026-04-22 11:53 36.54567 140.89879 10107 ft 316 kts 58°
2026-04-22 11:53 36.55426 140.92421 10294 ft 329 kts 82°
2026-04-22 11:54 36.55523 140.95311 10644 ft 342 kts 101°
2026-04-22 11:54 36.54897 140.98161 10991 ft 354 kts 118°
2026-04-22 11:54 36.53560 141.00748 11547 ft 358 kts 137°
2026-04-22 11:54 36.51662 141.02736 12210 ft 358 kts 154°
2026-04-22 11:55 36.49395 141.03928 12987 ft 352 kts 172°
2026-04-22 11:55 36.46975 141.04251 13647 ft 350 kts 188°
2026-04-22 11:55 36.44641 141.03687 14303 ft 345 kts 206°
2026-04-22 11:55 36.42560 141.02278 15115 ft 337 kts 221°
2026-04-22 11:56 36.40722 141.00511 15745 ft 342 kts 223°
2026-04-22 11:56 36.38813 140.98695 16485 ft 343 kts 223°
2026-04-22 11:56 36.36935 140.96901 17202 ft 344 kts 224°
2026-04-22 11:56 36.35054 140.95105 17853 ft 346 kts 224°
2026-04-22 11:57 36.33121 140.93271 18441 ft 351 kts 224°
2026-04-22 11:57 36.31034 140.91682 19118 ft 361 kts 213°
2026-04-22 11:57 36.28678 140.90495 19674 ft 373 kts 208°
2026-04-22 11:57 36.26145 140.89603 20281 ft 380 kts 203°
2026-04-22 11:58 36.23575 140.88922 20873 ft 386 kts 200°
2026-04-22 11:58 36.20916 140.88322 21382 ft 388 kts 201°
2026-04-22 11:58 36.18247 140.87749 21957 ft 392 kts 199°
2026-04-22 11:58 36.15530 140.87215 22323 ft 401 kts 198°
2026-04-22 11:59 36.12809 140.86729 23255 ft 392 kts 199°
2026-04-22 11:59 36.10064 140.86232 23396 ft 407 kts 198°
2026-04-22 11:59 36.07264 140.85753 24043 ft 407 kts 198°
2026-04-22 11:59 36.04449 140.85275 24543 ft 411 kts 198°
2026-04-22 12:00 36.01620 140.84796 25040 ft 414 kts 198°
2026-04-22 12:00 35.98736 140.84315 25626 ft 416 kts 198°
2026-04-22 12:00 35.95904 140.83844 26198 ft 418 kts 198°
2026-04-22 12:00 35.92972 140.83350 26415 ft 427 kts 198°
2026-04-22 12:01 35.90048 140.82872 27173 ft 424 kts 198°
2026-04-22 12:01 35.87107 140.82379 27498 ft 430 kts 198°
2026-04-22 12:01 35.84143 140.81889 27906 ft 434 kts 198°
2026-04-22 12:01 35.81174 140.81401 28635 ft 431 kts 198°
2026-04-22 12:02 35.78156 140.80898 28887 ft 439 kts 198°
2026-04-22 12:02 35.75125 140.80397 29316 ft 442 kts 198°
2026-04-22 12:02 35.72082 140.79925 29909 ft 445 kts 196°
2026-04-22 12:02 35.68893 140.79881 30251 ft 464 kts 186°
2026-04-22 12:03 35.65681 140.80489 30707 ft 480 kts 177°
2026-04-22 12:03 35.62430 140.81761 31182 ft 495 kts 168°
2026-04-22 12:03 35.59304 140.83635 31438 ft 514 kts 158°
2026-04-22 12:03 35.56315 140.86169 31885 ft 527 kts 149°
2026-04-22 12:04 35.53618 140.89229 32293 ft 539 kts 140°
2026-04-22 12:04 35.51223 140.92827 32728 ft 550 kts 131°
2026-04-22 12:04 35.49216 140.96851 33027 ft 557 kts 123°
2026-04-22 12:04 35.47644 141.01195 32997 ft 560 kts 114°
2026-04-22 12:05 35.45108 141.10094 33020 ft 552 kts 122°
2026-04-22 12:05 35.40961 141.17844 33033 ft 537 kts 140°